• In Belarus
  • List of Countries
  • For 7 days
  • Water Temperature
  • Weather Map
  • Weather Widgets
  • user-avatar
    Login

    Hourly Weather Kuperbash

    Today, 4 April, Saturday

    Time Temperature Precipitation Wind Pressure Humidity
    00:00 +1°C° 0 mm 4 mps 751 mmHg 75%
    01:00 +1°C° 0 mm 4 mps 751 mmHg 76%
    02:00 +1°C° 0 mm 4 mps 751 mmHg 77%
    03:00 +1°C° 0 mm 4 mps 751 mmHg 77%
    04:00 +1°C° 0 mm 4 mps 751 mmHg 77%
    05:00 0°C° 0 mm 5 mps 750 mmHg 77%
    06:00 0°C° 0 mm 5 mps 750 mmHg 77%
    07:00 +2°C° 0 mm 5 mps 750 mmHg 71%
    08:00 +5°C° 0 mm 5 mps 750 mmHg 65%
    09:00 +6°C° 0 mm 5 mps 750 mmHg 56%
    10:00 +8°C° 0 mm 6 mps 750 mmHg 51%
    11:00 +9°C° 0 mm 6 mps 750 mmHg 47%
    12:00 +11°C° 0 mm 7 mps 749 mmHg 42%
    13:00 +11°C° 0 mm 6 mps 749 mmHg 40%
    14:00 +13°C° 0 mm 6 mps 749 mmHg 38%
    15:00 +13°C° 0 mm 6 mps 749 mmHg 36%
    16:00 +12°C° 0 mm 5 mps 749 mmHg 43%
    17:00 +10°C° 0 mm 4 mps 749 mmHg 50%
    18:00 +8°C° 0 mm 4 mps 750 mmHg 57%
    19:00 +8°C° 0 mm 3 mps 750 mmHg 63%
    20:00 +7°C° 0 mm 2 mps 750 mmHg 69%
    21:00 +7°C° 0 mm 2 mps 751 mmHg 75%
    22:00 +6°C° 0 mm 2 mps 751 mmHg 75%
    23:00 +7°C° 0 mm 1 mps 751 mmHg 75%

    Tomorrow, 5 April, Sunday

    Time Temperature Precipitation Wind Pressure Humidity
    00:00 +6°C° 0 mm 1 mps 751 mmHg 74%
    01:00 +5°C° 0 mm 2 mps 751 mmHg 75%
    02:00 +3°C° 0 mm 3 mps 752 mmHg 75%
    03:00 +2°C° 0 mm 3 mps 752 mmHg 75%
    04:00 +1°C° 0 mm 4 mps 752 mmHg 75%
    05:00 +1°C° 0 mm 4 mps 753 mmHg 74%
    06:00 0°C° 0 mm 4 mps 753 mmHg 73%
    07:00 +1°C° 0 mm 4 mps 753 mmHg 67%
    08:00 +2°C° 0 mm 5 mps 753 mmHg 61%
    09:00 +2°C° 0 mm 5 mps 754 mmHg 55%
    10:00 +3°C° 0 mm 5 mps 754 mmHg 48%
    11:00 +5°C° 0 mm 5 mps 754 mmHg 41%
    12:00 +5°C° 0 mm 5 mps 754 mmHg 33%
    13:00 +5°C° 0 mm 5 mps 754 mmHg 32%
    14:00 +5°C° 0 mm 5 mps 754 mmHg 31%
    15:00 +6°C° 0 mm 5 mps 753 mmHg 30%
    16:00 +5°C° 0 mm 4 mps 753 mmHg 35%
    17:00 +4°C° 0 mm 3 mps 753 mmHg 39%
    18:00 +4°C° 0 mm 2 mps 753 mmHg 44%
    19:00 +4°C° 0 mm 2 mps 753 mmHg 50%
    20:00 +3°C° 0 mm 2 mps 753 mmHg 56%
    21:00 +2°C° 0 mm 2 mps 754 mmHg 62%
    22:00 +2°C° 0 mm 2 mps 753 mmHg 65%
    23:00 +1°C° 0 mm 2 mps 753 mmHg 68%

    Day after tomorrow, 6 April, Monday

    Time Temperature Precipitation Wind Pressure Humidity
    00:00 -1°C° 0 mm 2 mps 753 mmHg 72%
    01:00 -1°C° 0 mm 2 mps 753 mmHg 72%
    02:00 -1°C° 0 mm 2 mps 753 mmHg 72%
    03:00 -1°C° 0 mm 2 mps 753 mmHg 72%
    04:00 +1°C° 0 mm 1 mps 753 mmHg 71%
    05:00 +1°C° 0 mm 1 mps 753 mmHg 69%
    06:00 +1°C° 0 mm 1 mps 753 mmHg 67%
    07:00 +2°C° 0 mm 1 mps 753 mmHg 63%
    08:00 +2°C° 0 mm 2 mps 753 mmHg 60%
    09:00 +2°C° 0 mm 3 mps 753 mmHg 56%
    10:00 +1°C° 0.3 mm 4 mps 753 mmHg 62%
    11:00 0°C° 0.3 mm 5 mps 753 mmHg 69%
    12:00 -1°C° 0.3 mm 6 mps 753 mmHg 75%
    13:00 -1°C° 0.1 mm 6 mps 754 mmHg 71%
    14:00 -1°C° 0.1 mm 7 mps 754 mmHg 67%
    15:00 -1°C° 0.1 mm 7 mps 754 mmHg 63%
    16:00 -2°C° 0 mm 7 mps 754 mmHg 68%
    17:00 -2°C° 0 mm 7 mps 754 mmHg 72%
    18:00 -4°C° 0 mm 8 mps 755 mmHg 76%
    19:00 -4°C° 0 mm 7 mps 755 mmHg 80%
    20:00 -4°C° 0 mm 6 mps 755 mmHg 85%
    21:00 -4°C° 0 mm 6 mps 756 mmHg 89%
    22:00 -4°C° 0.4 mm 6 mps 756 mmHg 90%
    23:00 -4°C° 0.4 mm 6 mps 756 mmHg 91%

    7 April, Tuesday

    Time Temperature Precipitation Wind Pressure Humidity
    00:00 -3°C° 0.4 mm 6 mps 756 mmHg 93%
    01:00 -4°C° 0.1 mm 6 mps 757 mmHg 87%
    02:00 -4°C° 0.1 mm 6 mps 758 mmHg 81%
    03:00 -4°C° 0.1 mm 6 mps 759 mmHg 75%
    04:00 -5°C° 0 mm 6 mps 759 mmHg 76%
    05:00 -5°C° 0 mm 6 mps 760 mmHg 77%
    06:00 -5°C° 0 mm 5 mps 761 mmHg 78%
    07:00 -5°C° 0 mm 6 mps 761 mmHg 70%
    08:00 -4°C° 0 mm 6 mps 761 mmHg 62%
    09:00 -3°C° 0 mm 6 mps 761 mmHg 55%
    10:00 -2°C° 0 mm 7 mps 761 mmHg 52%
    11:00 -1°C° 0 mm 7 mps 761 mmHg 49%
    12:00 -1°C° 0 mm 7 mps 761 mmHg 47%
    13:00 -1°C° 0 mm 7 mps 760 mmHg 46%
    14:00 -1°C° 0 mm 8 mps 760 mmHg 45%
    15:00 -1°C° 0 mm 8 mps 759 mmHg 44%
    16:00 -1°C° 0 mm 7 mps 759 mmHg 49%
    17:00 -2°C° 0 mm 6 mps 759 mmHg 54%
    18:00 -2°C° 0 mm 5 mps 759 mmHg 59%
    19:00 -2°C° 0 mm 5 mps 758 mmHg 62%
    20:00 -4°C° 0 mm 5 mps 758 mmHg 65%
    21:00 -4°C° 0 mm 4 mps 758 mmHg 68%
    22:00 -4°C° 0 mm 4 mps 758 mmHg 69%
    23:00 -4°C° 0 mm 4 mps 758 mmHg 71%

    8 April, Wednesday

    Time Temperature Precipitation Wind Pressure Humidity
    00:00 -5°C° 0 mm 4 mps 757 mmHg 73%
    01:00 -5°C° 0 mm 4 mps 757 mmHg 74%
    02:00 -5°C° 0 mm 3 mps 757 mmHg 76%
    03:00 -6°C° 0 mm 3 mps 757 mmHg 78%
    04:00 -5°C° 0 mm 3 mps 757 mmHg 76%
    05:00 -5°C° 0 mm 3 mps 756 mmHg 74%
    06:00 -5°C° 0 mm 3 mps 756 mmHg 72%
    07:00 -4°C° 0 mm 3 mps 756 mmHg 62%
    08:00 -2°C° 0 mm 3 mps 755 mmHg 52%
    09:00 -1°C° 0 mm 3 mps 755 mmHg 42%
    10:00 0°C° 0 mm 3 mps 755 mmHg 39%
    11:00 +1°C° 0 mm 3 mps 754 mmHg 36%
    12:00 +2°C° 0 mm 3 mps 754 mmHg 32%
    13:00 +2°C° 0 mm 3 mps 754 mmHg 33%
    14:00 +3°C° 0 mm 3 mps 753 mmHg 33%
    15:00 +3°C° 0 mm 3 mps 753 mmHg 33%
    16:00 +3°C° 0 mm 2 mps 753 mmHg 38%
    17:00 +2°C° 0 mm 2 mps 753 mmHg 43%
    18:00 +2°C° 0 mm 1 mps 753 mmHg 47%
    19:00 +2°C° 0 mm 1 mps 753 mmHg 49%
    20:00 +1°C° 0 mm 1 mps 753 mmHg 51%
    21:00 0°C° 0 mm 1 mps 754 mmHg 52%
    22:00 0°C° 0 mm 1 mps 754 mmHg 52%
    23:00 0°C° 0 mm 1 mps 754 mmHg 52%

    9 April, Thursday

    Time Temperature Precipitation Wind Pressure Humidity
    00:00 -1°C° 0 mm 0 mps 754 mmHg 52%
    01:00 0°C° 0 mm 1 mps 754 mmHg 53%
    02:00 0°C° 0 mm 1 mps 754 mmHg 53%
    03:00 -2°C° 0 mm 2 mps 754 mmHg 54%
    04:00 -2°C° 0 mm 2 mps 754 mmHg 54%
    05:00 -2°C° 0 mm 2 mps 754 mmHg 55%
    06:00 -1°C° 0 mm 3 mps 754 mmHg 56%
    07:00 0°C° 0 mm 3 mps 753 mmHg 51%
    08:00 +1°C° 0 mm 4 mps 753 mmHg 47%
    09:00 +3°C° 0 mm 4 mps 753 mmHg 43%
    10:00 +3°C° 0 mm 5 mps 753 mmHg 44%
    11:00 +5°C° 0 mm 5 mps 752 mmHg 46%
    12:00 +5°C° 0 mm 6 mps 752 mmHg 48%
    13:00 +5°C° 0 mm 6 mps 751 mmHg 53%
    14:00 +5°C° 0 mm 6 mps 751 mmHg 58%
    15:00 +5°C° 0 mm 6 mps 751 mmHg 63%
    16:00 +5°C° 0 mm 6 mps 750 mmHg 68%
    17:00 +4°C° 0 mm 6 mps 749 mmHg 72%
    18:00 +3°C° 0 mm 6 mps 749 mmHg 77%
    19:00 +3°C° 0 mm 6 mps 749 mmHg 79%
    20:00 +3°C° 0 mm 6 mps 748 mmHg 81%
    21:00 +3°C° 0 mm 6 mps 748 mmHg 83%
    22:00 +2°C° 0 mm 6 mps 747 mmHg 86%
    23:00 +2°C° 0 mm 6 mps 746 mmHg 88%
    Show more